This is the latest recevied weather packets stored in our database for station/object EA5JPW-10. If no packets are shown the sender has not sent any weather packets the latest 10 day(s).
| Time | Temp. | Humidity | Pressure | Rain* | Wind** | Luminosity | Snow |
|---|---|---|---|---|---|---|---|
| 1777304935 | 32.78° C | 32% | 994.2 hPa | - | - | - | - |
| 1777304035 | 33.89° C | 31% | 994.7 hPa | - | - | - | - |
| 1777303135 | 33.89° C | 31% | 995.1 hPa | - | - | - | - |
| 1777302235 | 33.33° C | 31% | 995.4 hPa | - | - | - | - |
| 1777301335 | 33.33° C | 31% | 995.4 hPa | - | - | - | - |
| 1777300434 | 33.89° C | 31% | 995.8 hPa | - | - | - | - |
| 1777299534 | 33.89° C | 32% | 995.5 hPa | - | - | - | - |
| 1777298635 | 32.78° C | 32% | 994.5 hPa | - | - | - | - |
| 1777297738 | 33.33° C | 32% | 995.9 hPa | - | - | - | - |
| 1777296838 | 33.89° C | 33% | 996.4 hPa | - | - | - | - |
| 1777295938 | 33.33° C | 33% | 996.1 hPa | - | - | - | - |
| 1777295037 | 32.22° C | 34% | 996.2 hPa | - | - | - | - |
| 1777294137 | 31.11° C | 36% | 996.5 hPa | - | - | - | - |
| 1777293237 | 31.67° C | 35% | 996.7 hPa | - | - | - | - |
| 1777292337 | 30° C | 37% | 996.5 hPa | - | - | - | - |
| 1777291437 | 29.44° C | 38% | 996.2 hPa | - | - | - | - |
| 1777290537 | 29.44° C | 38% | 996.7 hPa | - | - | - | - |
| 1777289636 | 28.89° C | 39% | 997.1 hPa | - | - | - | - |
| 1777288736 | 29.44° C | 39% | 997.1 hPa | - | - | - | - |
| 1777287836 | 27.78° C | 41% | 997.4 hPa | - | - | - | - |
| 1777286936 | 28.33° C | 40% | 997 hPa | - | - | - | - |
| 1777286036 | 27.22° C | 41% | 997.1 hPa | - | - | - | - |
| 1777285136 | 27.78° C | 41% | 997.2 hPa | - | - | - | - |
| 1777284235 | 27.78° C | 42% | 997 hPa | - | - | - | - |
| 1777283335 | 27.22° C | 43% | 997.2 hPa | - | - | - | - |
* Rain since midnight (hover to see other rain measurements)
** Current wind speed in m/s (hover to see current wind gust speed)